Content
SEND FEEDBACK

Daily
Averages
Monthly
Summary
United States of America

GAINESVILLE - UNIVERSITY OF FLORIDA, FLORIDA


Home > North America > United States > Florida
Elevation: 79 feet     Latitude: 29 38N     Longitude: 082 22W

WEATHER
 
SELECT A DAY
Number of Records: 207,664;   Date Range: 1/1/95 - 8/30/14
 
SHARE

PRINT THIS DATA

[ ← Previous Day ]
WEATHER ALMANAC - FEBRUARY 13, 2013
[ Next Day → ]
[ °C ]   °F
Weather ElementAverageHighLow
Temperature71.3 °F75.9 °F (11:53 am)63 °F (11:53 pm)
Dewpoint65.8 °F70 °F (11:53 am)52 °F (11:53 pm)
Humidity82.7 %91 % (9:53 am)67 % (11:53 pm)
Barometer29.88 in29.96 in (9:53 pm)29.84 in (1:41 pm)
Wind Speed10.1 mph18.4 mph (11:53 am)
Wind Gust26.5 mph (4:53 am)
Weather ElementAverage
Visibility9.9 mi
Wind DirectionSW (225.4 °)

Weather ElementTotal
Precipitation0.04 in
Cooling Degree Days4.5 (Base 65)
Growing Degree Days19.5 (Base 50)
Averaged from 35 records on February 13, 2013
WEATHER CONDITIONS BREAKOUT
WIND DIRECTION BREAKOUT
WEATHER BY HOUR - FEBRUARY 13, 2013
[ °C ]   °F
Local TimeTemperatureDewpointHumidityBarometerVisibilityWind DirectionWind SpeedGust SpeedPrecipitationEventsConditions
12:29 AM69.8 °F66.2 °F88 %29.90 in9.0 miSSW (200°)10.4 mphOvercast
12:53 AM70.0 °F66.0 °F87 %29.90 in9.0 miSSW (210°)9.2 mphOvercast
1:53 AM72.0 °F66.9 °F84 %29.87 in10.0 miSSW (200°)10.4 mph19.6 mphOvercast
2:53 AM72.0 °F68.0 °F87 %29.87 in10.0 miSSW (210°)10.4 mph17.3 mphOvercast
3:53 AM73.0 °F68.0 °F84 %29.86 in10.0 miSSW (210°)10.4 mphOvercast
4:53 AM73.0 °F68.0 °F84 %29.86 in10.0 miWSW (240°)12.7 mph26.5 mphOvercast
5:53 AM73.0 °F68.0 °F84 %29.85 in10.0 miSW (230°)15.0 mph20.7 mphOvercast
6:53 AM73.0 °F69.1 °F87 %29.86 in10.0 miSW (230°)13.8 mph23.0 mphOvercast
7:53 AM73.0 °F68.0 °F84 %29.88 in10.0 miSW (230°)9.2 mph24.2 mphOvercast
8:36 AM73.4 °F68.0 °F83 %29.88 in10.0 miSW (220°)10.4 mphOvercast
8:53 AM73.9 °F68.0 °F82 %29.88 in10.0 miSSW (210°)12.7 mph20.7 mphOvercast
9:04 AM73.4 °F68.0 °F83 %29.89 in10.0 miSW (220°)15.0 mph21.9 mph0.00 inRainLight Rain
9:53 AM72.0 °F69.1 °F91 %29.90 in9.0 miSW (220°)10.4 mph0.01 inRainLight Rain
10:30 AM73.4 °F69.8 °F88 %29.90 in10.0 miSW (230°)8.1 mph0.00 inOvercast
10:53 AM73.0 °F68.0 °F84 %29.90 in10.0 miWSW (250°)11.5 mph21.9 mph0.00 inRainLight Rain
11:17 AM73.4 °F68.0 °F83 %29.90 in10.0 miWSW (240°)16.1 mph21.9 mph0.00 inRainLight Rain
11:53 AM75.9 °F70.0 °F82 %29.87 in10.0 miWSW (240°)18.4 mph26.5 mph0.01 inMostly Cloudy
12:12 PM75.2 °F69.8 °F83 %29.87 in10.0 miWSW (240°)16.1 mph26.5 mphMostly Cloudy
12:33 PM75.2 °F68.0 °F78 %29.89 in10.0 miWSW (250°)10.4 mph23.0 mphMostly Cloudy
12:53 PM73.9 °F68.0 °F82 %29.87 in10.0 miSW (220°)10.4 mph19.6 mphOvercast
1:34 PM75.2 °F68.0 °F78 %29.85 in10.0 miWSW (250°)15.0 mph20.7 mphOvercast
1:41 PM75.2 °F68.0 °F78 %29.84 in10.0 miWSW (240°)11.5 mph20.7 mphMostly Cloudy
1:53 PM75.0 °F68.0 °F79 %29.85 in10.0 miWest (260°)15.0 mph21.9 mphMostly Cloudy
2:53 PM71.1 °F68.0 °F90 %29.86 in8.0 miWest (260°)12.7 mph0.00 inRainLight Rain
3:53 PM70.0 °F66.0 °F87 %29.84 in10.0 miWSW (240°)5.8 mph0.01 inOvercast
4:14 PM69.8 °F66.2 °F88 %29.87 in10.0 miWSW (250°)8.1 mphOvercast
4:41 PM69.8 °F66.2 °F88 %29.88 in10.0 miWSW (240°)11.5 mphOvercast
4:53 PM70.0 °F66.9 °F90 %29.87 in10.0 miWest (260°)6.9 mphOvercast
5:53 PM68.0 °F62.1 °F81 %29.88 in10.0 miWest (260°)4.6 mphOvercast
6:53 PM66.9 °F62.1 °F84 %29.89 in10.0 miWest (280°)5.8 mphScattered Clouds
7:53 PM66.9 °F60.1 °F79 %29.90 in10.0 miWNW (290°)5.8 mphMostly Cloudy
8:53 PM64.9 °F55.9 °F73 %29.94 in10.0 miWNW (290°)5.8 mph0.01 inOvercast
9:53 PM64.0 °F55.0 °F73 %29.96 in10.0 miWest (270°)3.5 mphOvercast
10:53 PM64.0 °F55.0 °F73 %29.95 in10.0 miCalmOvercast
11:53 PM63.0 °F52.0 °F67 %29.95 in10.0 miCalmOvercast
Hourly data recorded from KGNV, located miles away from Gainesville - University of Florida, Florida







STORIES FROM OUR PARTNERS